STARLINK-34934, 65897

Orbit data source: Space-Track

STARLINK-34934, 65897 is a payload satellite owned by SpaceX/Seattle (US) in LEO that was launched on Tue, 07 Oct 2025 UTC via an FALCON 9 launch vehicle from the Air Force Eastern Test Range (AFETR). Payload-class satellites include a variety of spacecraft equipped with specific instruments for various scientific and technological missions. These include communications satellites like Starlink; space stations such as the ISS; scientific satellites like the Hubble; Earth observation satellites from companies like Planet Labs, Umbra, and HawkEye 360; GPS; miniature CubeSats for education and research; and military/defense satellites.

Loading next visibility...
Identifier
65897, 2025-224R
Orbit
LEO
Country
Flag of USUS
Related business
Manufacturer
SpaceX/Seattle
Mission
Operational spacecraft
Bus & Motor
STARLINK V2MO, Unknown motor
Mass
575 kg wet, ~530 kg dry
Launch date (UTC)
2025-10-07 (2 months ago)
Launch vehicle
FALCON 9
Launch site
Air Force Eastern Test Range (AFETR)
Object type
Payload
Rocket body
Debris
Shape & HBR
Unknown shape, 17.7 m
Radar Cross Section
RCS unknown

Expand to show TLE details & history
Last TLE update: 23 hours ago

TLE from 23 hours ago
0 STARLINK-34934
1 65897U 25224R   25338.63801017  .00061803  00000-0  20813-2 0  9991
2 65897  53.1610  92.6883 0001660  68.8237 291.2941 15.30202112 10271
Epoch: 2025-12-04T15:18Z
TLE epoch observation values (Epoch: 2025-12-04T15:18:44.078Z)
Latitude
-0.00004°
Longitude
149.31303°
Altitude
475.696 km
Speed
7.629 km/s
True Right ascension
06h 10m 45s
True Declination
0° 00' 00"
Sunlit
Object was in full shadow at epoch
Visualization orbit readout
Latitude
Unknown
Longitude
Unknown
Altitude
Unknown
Speed
Unknown
Apparent Right ascension
Unknown
Apparent Declination
Unknown
Sunlit
N/A
Visualization observer readout
Local Sidereal Time
12:11:13
Azimuth
Unknown
Elevation
Unknown
Doppler factor
Unknown
Orbital elements
Apogee altitude
476.603 km
Perigee altitude
474.327 km
Semi-major axis
6,853.602 km
Eccentricity
0.00017
Inclination
53.161°
RAAN
92.6883°
Arg. of periapsis
68.8237°
True anomaly
291.27638°
Mean anomaly
291.2941°
Eccentric anomaly
291.28524°
Mean motion
3.82529 °/min
Orbital period
94.11 mins
BSTAR
0.0020813
Loading maneuver chart data...
Computing Atmospheric mass density...
Loading historical data...
Loading historical data...
Loading historical data...
Loading historical data...
Loading historical data...
Loading historical data...
Loading historical data...

Documentation

Showing up to 5 results
|